Theta_e
352 361 364 361 358 359 362 364 365 364 364 364 363 363 362 362 363 364 363 363 363 363 361 360 359 358 357 356 355 355 355 352 351 349 347 346 344 343 343 342 343 342 347
354 362 364 362 359 358 360 362 363 364 364 363 363 362 362 363 363 362 363 363 364 362 361 360 359 358 358 357 356 355 354 353 352 350 348 346 344 343 343 343 342 346 343
356 362 362 363 360 358 359 360 362 362 362 363 363 363 363 362 362 361 362 363 364 362 361 361 360 359 359 358 357 356 355 353 352 349 347 346 344 343 343 342 341 341 340
357 363 362 363 362 359 359 359 361 362 362 362 362 363 362 361 361 360 362 362 362 362 362 361 361 360 358 358 357 356 354 352 351 349 349 347 344 343 343 342 341 340 340
356 361 364 364 362 359 358 358 359 361 361 361 362 362 362 361 360 359 361 362 360 360 361 362 361 361 360 358 357 356 355 353 350 348 350 348 347 344 344 342 341 340 338
356 358 363 363 362 361 359 359 358 358 360 361 361 361 361 361 360 360 360 361 360 358 359 359 360 360 360 359 358 358 357 357 357 354 353 347 347 345 344 342 341 341 339
355 358 361 363 362 361 359 359 359 358 358 359 358 359 359 360 359 359 360 360 359 359 359 359 359 358 358 358 356 356 354 351 347 347 352 351 347 347 345 344 343 341 339
354 358 361 362 363 362 361 360 360 359 359 358 357 357 356 356 357 357 358 358 359 360 360 359 360 359 358 358 357 356 353 350 344 343 346 350 348 347 346 345 344 341 340
354 356 359 360 362 362 361 360 359 359 359 359 358 358 357 357 356 356 357 357 359 360 361 361 361 359 358 357 357 356 354 351 346 342 339 345 348 347 347 346 345 343 341
350 352 355 359 359 359 358 360 359 359 358 358 358 358 358 358 358 357 357 357 357 359 359 359 359 359 358 357 357 356 355 354 347 343 342 342 348 349 349 347 346 344 342
348 354 356 357 358 358 357 359 359 359 358 358 358 358 356 354 354 355 356 357 357 358 360 359 359 358 357 357 357 356 354 347 345 342 342 347 348 350 350 348 347 345 343
343 348 354 353 353 357 355 356 350 346 352 358 357 358 356 357 356 353 354 355 356 357 359 359 359 358 357 350 351 353 349 346 344 342 342 345 348 351 351 350 348 346 345
340 342 348 352 351 353 355 352 343 341 349 356 356 353 356 357 357 356 355 354 355 355 353 353 353 353 352 352 350 350 349 346 344 342 344 343 348 351 352 352 349 347 346
338 341 344 350 350 353 352 342 338 338 338 338 340 344 352 355 356 356 356 356 356 354 353 355 352 354 355 356 355 353 352 350 348 346 346 347 347 349 352 354 351 350 348
336 338 345 344 346 342 337 336 336 334 333 336 338 338 341 340 342 344 347 350 353 355 354 354 354 354 354 355 355 354 353 352 352 350 348 350 348 350 352 355 355 351 348
334 338 336 336 336 334 333 334 331 331 334 332 331 330 332 332 334 334 337 344 348 351 352 354 353 354 354 354 353 354 354 354 353 353 351 350 348 348 351 354 356 353 350
331 333 331 331 331 331 329 329 330 328 328 329 327 329 331 332 334 335 335 337 339 346 352 352 353 355 354 353 352 352 351 351 351 351 352 351 351 347 351 353 355 355 352
329 329 329 326 327 328 329 327 328 327 327 327 326 327 329 330 333 334 334 335 339 346 346 349 350 351 351 351 350 350 348 350 349 350 351 351 351 351 352 353 353 355 353
328 327 327 327 326 327 328 327 328 329 326 326 326 325 328 329 330 330 329 331 335 339 343 342 344 346 348 349 348 348 348 348 348 346 349 351 352 353 353 352 352 352 352
325 327 326 326 326 327 326 326 325 325 325 326 326 326 327 329 328 328 327 328 330 331 334 337 342 343 344 346 346 343 347 347 346 345 347 349 351 353 354 354 354 353 350
324 325 325 326 327 325 324 323 324 323 325 326 327 326 327 329 327 328 325 326 327 327 329 331 334 339 340 344 342 340 342 344 341 339 340 340 344 345 349 350 353 358 352
324 326 326 326 327 326 327 328 327 326 325 326 327 327 326 328 329 327 327 325 326 324 325 326 329 330 333 341 337 335 327 333 337 337 339 340 341 343 345 347 349 350 350
324 326 327 327 329 329 329 328 327 325 325 323 323 324 325 326 328 327 326 326 325 324 320 323 325 325 324 331 336 335 324 322 333 337 338 339 337 338 339 342 343 340 336
321 323 324 325 327 328 330 327 327 323 321 322 322 324 326 325 327 327 326 326 326 324 323 321 322 324 324 321 328 335 336 336 326 323 334 337 336 333 329 327 330 330 332
318 319 321 323 324 325 325 325 322 321 320 321 321 324 327 327 325 326 326 325 324 323 324 321 321 321 321 321 321 324 325 330 331 330 325 330 330 326 325 323 322 322 324
315 316 316 318 319 322 322 320 320 319 319 318 320 319 320 322 322 325 325 325 325 323 321 319 320 320 319 320 320 322 322 324 325 326 327 330 328 321 320 321 319 318 318
Wind_Speed
3 7 6 11 10 9 10 13 16 15 13 15 17 16 15 14 14 13 12 12 11 12 13 13 13 12 12 12 12 11 11 13 13 13 13 13 12 12 11 11 10 12 12
6 6 8 7 11 11 10 12 12 13 14 14 15 15 14 13 12 12 11 10 11 12 12 12 11 11 11 11 11 11 11 12 12 12 12 12 11 11 10 10 9 14 13
10 8 12 10 10 11 11 11 12 12 12 13 14 14 13 12 11 10 10 9 9 11 11 11 10 9 10 10 10 10 10 10 10 10 7 7 9 9 9 9 9 12 12
9 7 12 13 12 13 11 10 10 12 12 13 13 12 11 10 10 9 8 8 9 9 9 10 10 9 8 8 8 9 9 9 9 9 4 6 8 8 7 8 9 9 10
7 8 9 13 13 14 13 12 9 10 11 12 12 12 12 10 9 8 7 7 8 8 7 7 8 8 7 6 7 5 6 7 7 5 3 4 4 9 8 7 8 7 7
7 6 12 10 11 13 12 11 9 8 7 9 9 9 9 10 9 8 7 6 6 7 7 6 6 6 6 5 5 5 4 4 6 4 3 6 3 11 9 7 7 7 7
6 5 8 9 9 12 13 11 10 7 8 6 6 6 6 7 7 7 6 6 6 6 6 6 6 5 6 5 5 4 4 3 7 4 5 5 5 10 10 9 9 8 7
9 5 8 9 14 12 10 10 8 7 7 7 5 5 3 3 3 4 4 4 5 5 6 6 7 6 6 6 6 6 5 5 6 5 6 6 7 11 12 11 11 10 9
8 7 7 7 11 12 12 11 9 7 7 6 5 4 4 3 3 4 4 4 5 6 6 6 6 6 7 7 6 7 7 7 9 5 6 6 12 14 13 13 12 11 11
8 9 9 8 9 9 8 10 9 7 6 5 6 6 5 4 4 5 5 7 7 6 7 7 8 8 8 8 8 8 8 9 11 7 5 5 11 16 15 15 14 12 12
6 6 6 6 7 8 9 8 8 6 4 6 7 6 7 4 5 5 4 6 8 9 8 9 9 9 8 9 10 10 9 7 8 6 5 6 14 17 17 17 16 15 15
4 6 4 7 7 7 6 7 5 4 3 5 5 5 4 5 5 5 6 8 9 10 10 10 10 10 10 8 6 9 7 7 7 6 6 7 14 18 18 18 18 17 17
7 6 8 7 6 7 6 4 3 2 2 1 1 2 4 4 4 4 4 4 5 8 7 7 7 7 7 6 6 6 7 8 6 6 7 10 14 18 20 19 19 19 18
8 9 9 8 7 5 4 4 3 3 3 3 3 3 2 2 3 4 4 4 5 5 6 6 5 6 8 8 9 9 8 7 6 6 8 11 15 18 21 20 21 20 18
8 3 6 5 5 6 6 4 4 4 4 5 5 7 5 4 4 4 4 4 4 5 6 6 6 6 7 8 8 9 9 8 9 7 7 10 15 18 21 21 21 22 22
4 5 6 6 6 6 5 6 5 5 5 5 5 6 7 4 3 4 4 4 4 4 5 6 7 6 6 7 8 8 8 7 8 9 7 8 13 16 19 21 22 22 22
5 6 7 6 6 6 6 5 4 4 5 5 5 7 7 6 5 4 4 4 4 5 6 6 6 7 7 7 8 8 7 7 7 9 8 8 8 16 17 19 21 21 22
7 7 6 5 5 5 5 4 3 3 4 5 5 5 7 7 7 4 4 5 7 5 5 5 6 6 7 7 7 7 7 6 7 8 8 7 8 8 13 19 21 21 21
8 7 6 5 5 5 4 4 4 5 5 4 4 4 5 5 6 6 6 6 8 6 5 5 5 6 7 7 7 7 6 6 6 6 8 7 8 8 7 14 20 21 22
10 8 7 5 6 5 4 3 4 3 3 4 4 3 4 3 5 3 4 6 7 7 7 8 7 5 7 8 7 7 6 6 5 6 6 6 7 8 9 10 10 14 22
10 8 7 5 6 5 3 3 2 2 1 2 1 3 3 3 4 4 4 5 5 6 7 9 9 8 7 4 6 7 6 5 5 4 4 4 6 6 7 8 8 7 11
9 7 6 5 4 3 2 1 2 2 2 3 2 4 4 2 1 1 3 4 4 3 5 7 8 7 6 6 5 5 6 4 4 4 3 3 5 5 6 6 9 9 6
7 4 2 6 8 9 9 6 5 4 4 4 5 5 5 5 4 3 1 3 3 3 4 4 5 6 6 7 7 5 5 7 2 4 4 2 3 4 3 5 4 3 5
9 7 7 8 9 7 7 7 8 8 8 7 7 6 6 7 7 6 3 0 1 2 3 3 3 4 5 8 8 2 7 8 7 8 4 3 1 2 4 4 3 3 3
13 12 10 10 9 9 9 7 8 9 9 9 8 10 10 9 9 9 7 5 3 2 2 3 4 5 4 6 7 7 7 5 7 8 9 4 1 2 3 3 4 5 7
11 11 11 11 10 9 7 7 8 10 12 11 11 11 10 8 8 9 9 7 5 4 3 4 5 5 6 7 7 8 9 6 3 5 7 7 5 2 3 3 4 5 7
Wind_Direction
165 141 144 132 130 123 112 112 116 121 125 126 126 128 129 130 130 127 124 120 119 113 112 112 113 114 113 110 107 102 101 99 96 89 89 90 91 91 92 94 101 87 78
147 159 136 134 130 122 115 109 110 116 122 124 124 126 128 130 130 129 127 127 125 123 121 121 122 122 123 120 116 112 107 105 102 99 97 97 97 104 103 89 77 80 75
151 165 146 143 131 124 121 115 111 113 118 122 124 126 127 128 129 130 133 129 126 128 130 130 130 130 131 131 126 117 113 109 106 106 105 80 98 112 109 94 94 81 81
149 167 152 144 139 130 129 126 122 121 121 121 123 124 124 128 133 137 137 134 136 137 138 139 137 137 137 137 136 131 125 123 121 127 114 97 105 120 113 105 96 96 93
153 164 149 141 141 134 136 132 128 128 130 130 131 133 135 137 138 139 140 142 147 148 149 148 144 146 146 145 145 148 141 143 142 183 123 118 117 127 130 121 119 110 84
163 169 137 132 131 129 130 131 132 125 122 125 127 129 135 140 144 146 149 156 159 164 163 163 157 159 162 163 159 160 178 208 216 216 194 137 185 136 152 141 133 119 111
126 118 117 119 122 125 124 129 129 135 120 109 114 122 135 149 155 162 165 171 177 184 181 179 185 187 183 191 197 195 208 224 267 253 206 206 172 165 166 161 148 145 131
110 106 121 131 127 108 114 117 118 122 133 122 140 140 160 176 182 187 206 213 205 204 209 212 203 211 216 216 214 224 230 240 229 251 240 215 150 180 180 175 167 163 158
117 108 98 121 111 118 110 111 120 131 124 140 144 152 178 192 219 235 239 249 248 236 231 233 239 238 236 243 242 243 249 248 271 243 249 234 170 193 190 187 181 176 172
137 145 138 136 124 122 117 125 121 121 128 153 159 170 181 198 212 232 251 233 257 256 254 249 242 243 249 250 250 242 253 267 260 259 239 236 180 200 197 194 192 188 183
120 109 117 115 112 113 117 105 118 120 152 171 179 184 186 205 212 219 239 255 251 255 256 255 256 251 244 246 247 251 250 253 263 260 260 168 204 205 205 200 199 197 190
140 118 132 127 122 111 110 124 125 112 192 186 186 191 212 207 214 236 234 235 245 249 249 252 256 259 251 258 239 234 247 256 258 255 256 198 213 213 212 206 205 203 196
158 159 178 153 147 144 145 143 106 118 111 146 166 273 235 224 219 217 233 243 252 233 249 231 244 248 262 266 262 252 266 266 262 259 248 208 220 220 219 216 210 208 202
195 178 180 170 156 143 134 136 132 129 107 109 93 51 50 285 254 257 245 240 239 246 254 246 248 256 258 257 261 263 253 255 259 263 259 220 221 224 225 224 214 213 206
208 171 181 168 138 127 123 109 107 101 83 85 72 54 53 45 10 337 330 297 285 268 256 255 253 252 258 258 257 259 266 262 260 256 263 227 231 225 227 225 219 216 210
33 60 67 76 58 52 66 102 108 105 106 86 72 63 68 58 42 22 6 342 307 295 278 267 264 259 255 261 261 256 261 266 256 256 253 258 224 232 228 228 224 217 214
75 89 73 73 81 94 99 83 71 85 93 92 75 55 54 42 31 12 9 344 340 322 296 275 264 260 254 251 258 257 254 258 261 263 253 251 243 220 224 221 222 218 217
98 91 82 89 96 91 80 82 93 80 85 76 61 46 38 34 23 14 15 5 349 332 338 314 295 272 260 254 251 253 261 261 268 270 266 261 248 252 206 219 218 218 211
109 109 91 83 82 83 102 102 84 68 61 70 64 59 58 53 43 27 18 10 355 347 348 331 300 278 280 267 256 256 255 258 268 281 274 262 265 256 248 203 215 217 209
103 96 86 68 48 31 29 51 67 65 62 54 44 34 56 81 80 57 51 21 2 1 358 350 326 297 283 288 291 283 266 266 271 285 288 289 272 265 255 254 220 222 217
90 89 73 73 39 23 13 360 13 18 24 61 31 338 359 27 56 53 59 46 26 23 11 355 342 331 304 296 276 262 263 254 268 264 272 279 271 279 270 257 253 251 226
103 99 99 92 80 72 112 187 244 258 249 282 254 247 248 256 294 88 59 55 45 36 30 14 5 339 311 332 292 285 276 216 227 241 253 275 287 287 272 252 243 254 270
36 41 125 164 175 185 190 192 198 217 217 224 230 249 261 274 257 266 56 64 53 6 30 23 10 360 325 315 316 305 270 262 299 177 212 246 309 318 330 309 261 174 151
23 3 353 357 351 356 353 344 342 320 308 309 298 283 256 238 243 235 225 193 36 5 20 26 21 346 323 311 320 303 295 295 285 272 204 208 264 345 19 17 13 58 106
9 5 358 349 341 337 337 329 319 310 303 300 295 285 269 248 235 225 213 205 213 265 332 350 353 345 320 310 307 304 312 284 286 281 276 199 245 52 51 56 78 71 69
2 357 352 350 336 338 336 332 319 315 306 297 288 280 272 263 238 228 221 212 213 219 270 322 333 326 317 302 298 293 286 277 311 267 272 280 275 79 61 86 81 86 96